Location: *
(32.8667°N, 13.1833°E)
Time: 07:55:55
(UTC+00:00)

Cosmos 304 Rocket - Pass Details

Date: 18 July 2019
Orbit: 679 x 688 km, 74.0° (Epoch: 23 August)

Event Time Altitude Azimuth Distance (km) Brightness Sun altitude
Rises 19:45:41 0° 350° (N) 3,058 7.9 -16.8°
Reaches altitude 10° 19:48:05 10° 356° (N) 2,140 6.9 -17.2°
Maximum altitude 19:52:44 48° 71° (ENE) 894 4.1 -17.9°
Enters shadow 19:54:17 35° 120° (ESE) 1,103 4.3 -18.2°
